Regional Weather Roundup
Issued by NWS Pendleton, OR

Home | Current Version | Previous Version | Text Only | Print | Product List | Glossary On
Versions: 1 2 3 4 5 6 7 8 9 10 11 12 13 14 15 16 17 18 19 20 21 22 23 24 25 26 27 28 29 30 31 32 33 34 35 36 37 38 39 40 41 42 43 44 45 46 47 48 49 50
000
ASUS46 KPDT 202325
RWRPDT
PENDLETON REGIONAL WEATHER ROUNDUP
NATIONAL WEATHER SERVICE PENDLETON OREGON
300 PM PST MON NOV 20 2017

NOTE: FAIR INDICATES FEW OR NO CLOUDS BELOW 12,000 FEET WITH NO
SIGNIFICANT WEATHER AND/OR OBSTRUCTIONS TO VISIBILITY.

# INDICATES UNOFFICIAL STATION AND DATA

WAZ520-210010-
EAST SLOPES OF WASHINGTON CASCADES

CITY            SKY/WX      TMP DP  RH  WIND    PRES   REMARKS
#BULLFROG       N/A         42  38  86  W2      N/A
#CLE ELUM HS    N/A         42  37  82  NW3     29.75R
#CLE ELUM LAKE  N/A         39  35  85  NW1     29.74R
#EASTON DOT     N/A         38  36  92  N2      N/A
#GLENWOOD       N/A         47  40  76  S3      29.83R
#NELSON 3SW     N/A         36  35  96  NW1     30.04R
#NILE           N/A         40  39  96  CALM    29.10R
#TEANAWAY 4NE   N/A         45  40  82  SW2     N/A
#TROUT LAKE 1NE N/A         45  40  82  W7      29.86R
#TROUT LAKE 1E  N/A         45  41  86  CALM    29.87R
$$

WAZ521-210010-
SIMCOE HIGHLANDS

CITY            SKY/WX      TMP DP  RH  WIND    PRES   REMARKS
#BICKLETON HS   N/A         N/A N/A N/A CALM    29.85R
#SATUS PASS DOT N/A         44  33  65  W13     N/A    WCI 38
#CENTERVILLE 1SWN/A         49  41  74  W16     29.82R WCI 43
#GOLDENDALE 4W  N/A         50  28  42  W5      29.89R
#GOODNOE HILLS  N/A         51  41  68  W17G26  N/A
#LYLE 6NE       N/A         49  43  80  W10     29.87R
#PITT 4SE       N/A         45  40  82  W15G25  29.87R WCI 38
$$

WAZ026-210010-
KITTITAS VALLEY

CITY            SKY/WX      TMP DP  RH  WIND    PRES   REMARKS
ELLENSBURG AP   PTCLDY      50  38  63  NW20    29.76R
#ELLENSBURG CWU N/A         47  40  76  NW7     29.73R
#ELLENSBURG 3NE N/A         47  40  76  NW12    27.84R WCI 42
#ELLENSBURG 1E  N/A         47  40  76  N1      29.84R
#KITTITAS 3S    N/A         49  42  77  W7      29.80R
#MANASTASH RDG  N/A         42  42  100 W6      N/A
#RYEGRASS DOT   N/A         44  36  73  W25     N/A    WCI 35
$$

WAZ027-210010-
YAKIMA VALLEY

CITY            SKY/WX      TMP DP  RH  WIND    PRES   REMARKS
SUNNYSIDE AP    CLEAR       55  37  51  W9      29.78R
YAKIMA AIRPORT  PTCLDY      57  35  43  W20G29  29.77R
YAKIMA-VAGABOND CLEAR       53  34  48  NW15    29.75R
#DONALD 2NE     N/A         59  13  16  S6      28.63R
#GRANDVIEW      N/A         57  36  45  NW3     29.71R
#MABTON         N/A         58  41  53  W15G26  29.76R
#MOXEE 2E       N/A         46  N/A N/A S3      29.65F
#NACHES 2SW     N/A         52  39  61  W6      29.78R
#OUTLOOK DOT    N/A         57  37  47  CALM    29.74R
#PARKER DOT     N/A         58  32  37  E8      29.77R
#TERRACE HTS    N/A         56  38  51  N2      29.76R
#TOPPENISH      N/A         56  39  53  CALM    29.69R
#I82 S UMTANUM RN/A         50  32  50  W14     N/A
#UNION GAP DOT  N/A         55  33  43  W6      29.80R
#W YAKIMA       N/A         54  36  50  W3      29.79R
#WHITE SWAN 5E  N/A         56  40  55  W10     29.78R
#WILEY CITY 3W  N/A         53  32  45  NW3     29.75R
#ZILLAH DOT     N/A         57  36  45  W12     N/A
$$

WAZ028-210010-
LOWER COLUMBIA BASIN...WASHINGTON

CITY            SKY/WX      TMP DP  RH  WIND    PRES   REMARKS
HANFORD         MOCLEAR     57  41  55  W14     29.77R
PASCO           CLEAR       61  39  44  W23G28  29.78R
PROSSER AWOS    N/A         57  37  47  W15     29.83R
RICHLAND AWOS   CLEAR       59  38  45  SW18G25 29.78R
#BENTON CITY    N/A         57  39  51  W6      29.69R
#CONNELL 5N     N/A         52  51  96  SW2     29.75R
#CONNELL 5NW    N/A         52  48  86  SW7     29.70R
#ELTOPIA 6NW    N/A         55  49  80  CALM    28.73R
#KAHLOTUS       N/A         51  47  86  N10     29.75R
#KENNEWICK 3S   N/A         57  48  72  W5      29.78R
#PATERSON       N/A         58  42  55  N17G24  29.79R
#PROSSER DOT    N/A         58  37  45  SW14    29.79R
#SAGEMOOR 2W    N/A         57  45  64  W15     29.63R
#TOUCHET 2S     N/A         55  48  77  SW14    29.78R
#WEST PASCO     N/A         60  40  47  CALM    29.73R
$$

WAZ029-210010-
FOOTHILLS OF THE BLUES...WASHINGTON

CITY            SKY/WX      TMP DP  RH  WIND    PRES   REMARKS
WALLA WALLA AP  LGT RAIN    55  45  69  SW20G30 29.80R
#CLYDE 6NW      N/A         54  47  77  W21G29  29.75R
#DAYTON SCHOOL  N/A         51  41  68  SW12    29.79R
#DELANEY DOT    N/A         55  46  72  S12     29.76R
#LOWDEN 2SE     N/A         56  47  72  W18G28  29.75R
#PLEASANT VIEW 1N/A         51  47  86  S15G26  29.78R
#PRESCOTT       N/A         54  48  80  CALM    29.77R
#WHITMAN COLLEGEN/A         56  44  64  S6      29.78R
#WAITSBURG 5S   N/A         51  46  83  SW14    29.87R
#WAITSBURG 6SSE N/A         51  43  74  SE10    29.79R
#WAITSBURG 8N   N/A         50  N/A N/A S21     29.80R
#WALLA WALLA 5E N/A         54  47  77  SW23    N/A
#WHITMAN MISSIONN/A         57  47  69  SW16    29.81R
$$

WAZ030-210010-
BLUE MOUNTAINS...WASHINGTON

CITY            SKY/WX      TMP DP  RH  WIND    PRES   REMARKS
#DIXIE 5SE      N/A         45  41  86  SW18G26 29.72R WCI 37
#SKI BLUEWOOD   N/A         38  35  89  S7G35   29.78
$$

ORZ009-041-WAZ024-210010-
COLUMBIA RIVER GORGE

CITY            SKY/WX      TMP DP  RH  WIND    PRES   REMARKS
HOOD RIVER AP   MOCLDY      50  43  77  NW7     29.89R
THE DALLES AP   PTCLDY      55  44  66  NW15    29.85R
#ARLINGTON AIRPON/A         53  42  66  W20     29.85R
#ARLINGTON HS   N/A         56  41  57  W21     29.73R
#CELILO DOT     N/A         54  39  57  SW6     N/A
#LYLE           N/A         53  47  80  W13     29.87R
#MARYHILL       N/A         53  40  61  N21G33  N/A
#MURDOCK        N/A         52  46  80  NW9     29.83R
#RUFUS DOT      N/A         56  N/A N/A W21G31  N/A
#SMITHVILLE     N/A         53  46  77  W12     29.81R

$$

ORZ510-210010-
NORTH CENTRAL OREGON

CITY            SKY/WX      TMP DP  RH  WIND    PRES   REMARKS
#ANTELOPE       N/A         50  43  77  W5      29.70R
#CHENOWITH 1W   N/A         46  42  86  NW20G26 N/A    WCI 38
#COW CYN RST AREN/A         49  N/A N/A W10     N/A
#DUFUR          N/A         52  41  66  NW13    29.80R
#DUFUR 9E       N/A         46  39  76  W21G28  29.91R WCI 38
#GRASS VALLEY 1SN/A         49  37  63  SW15    29.86R WCI 43
#KENT DOT       N/A         47  34  60  W20G30  N/A    WCI 40
#MAUPIN SCHOOL  N/A         55  37  51  W5      29.91R
#MORO SCHOOL    N/A         49  44  83  W9      29.84R
#SHANIKO 5WSW   N/A         46  -30  3  W24     N/A    WCI 38
#SHANIKO 4NW    N/A         44  40  86  W18G28  29.81R WCI 36
#TYGH VALLEY 2NEN/A         56  36  47  N10     29.83R
#WAPANITIA AIRPON/A         50  37  61  W10     29.86R
#WASCO DOT      N/A         51  42  71  W20G26  N/A
#WASCO 5NE      N/A         49  40  71  N9      29.84R
$$

ORZ511-210010-
CENTRAL OREGON

CITY            SKY/WX      TMP DP  RH  WIND    PRES   REMARKS
BEND AIRPORT    CLOUDY      54  46  74  SW12    29.88R
PRINEVILLE AP   PTCLDY      52  43  71  NW7     29.88R
REDMOND AIRPORT CLOUDY      53  44  71  N6      29.86R
#ASHWOOD SCHOOL N/A         54  42  64  W3      29.82R
#BEND 1SW       N/A         48  46  93  NW2     N/A
#BEND-AWBREY    N/A         50  47  89  E3      29.87R
#BEND-KIM LN    N/A         50  44  80  VRB1    29.77R
#CULVER         N/A         52  43  71  S7      29.70R
#CULVER 8W      N/A         51  42  71  E1      29.87R
#LAKE BILLY CHINN/A         52  N/A N/A W1      29.94R
#MADRAS 4S      N/A         53  12  19  W9      N/A
#POWELL BUTTE   N/A         51  43  74  CALM    29.84R
#PRINEVILLE     N/A         54  46  74  NW2     29.90R
#PRINEVILLE 3N  N/A         53  44  71  W7      29.84R
#WARM SPRINGS   N/A         55  43  64  CALM    29.67R

$$


ORZ509-210010-
EAST SLOPES OF OREGON CASCADES

CITY            SKY/WX      TMP DP  RH  WIND    PRES   REMARKS
SISTERS AWOS    N/A         48  43  83  W8      N/A
#CAMP SHERMAN   N/A         46  42  86  N1      29.90R
#LA PINE 4NW    N/A         45  42  89  CALM    29.96R
#LAVA BUTTE DOT N/A         46  44  93  S2      N/A
#SISTERS ODOT   N/A         49  42  77  W3      N/A
#SISTERS 3N     N/A         46  41  83  N2      29.88R
#SUNRIVER       N/A         47  46  96  SW3     29.91R
#TUMALO 3W      N/A         49  43  80  E5      29.72R
#WANOGA BUTTE D N/A         40  40  100 W12G24  N/A    WCI 33

$$

ORZ044-210010-
LOWER COLUMBIA BASIN...OREGON

CITY            SKY/WX      TMP DP  RH  WIND    PRES   REMARKS
HERMISTON       CLEAR       56  46  69  SW16G24 29.81R
#BOARDMAN SCHOOLN/A         59  44  57  SW8     29.81R
#BOARDMAN 8SW   N/A         55  44  66  W12     29.85R
#ECHO 8SW       N/A         54  47  77  W5      29.83R
#I-84 EX 198 DOTN/A         53  46  77  E16     N/A
#IONE SCHOOL    N/A         54  38  55  W13     29.87R
#UMATILLA       N/A         58  45  62  SW13G24 29.73R
$$

ORZ507-210010-
NORTHERN FOOTHILLS OF THE BLUES

CITY            SKY/WX      TMP DP  RH  WIND    PRES   REMARKS
PENDLETON AIRPT MOCLDY      52  45  77  W21G29  29.82R
#ADAMS 3WNW     N/A         50  45  83  SW10    29.82R
#ATHENA         N/A         49  43  80  CALM    29.84R
#CAYUSE         N/A         50  46  86  SW8     29.83R
#HELIX SCHOOL   N/A         51  45  80  N14     29.81R
#HELIX 3N       N/A         49  45  86  SW20G26 29.80R WCI 42
#HOLDMAN 5SE    N/A         52  46  80  SW10    29.82R
#HOLDMAN 6E     N/A         48  47  96  SW15G25 29.61R WCI 42
#M-F GROVE ELEM N/A         52  44  74  S7      29.81R
#M-FREEWATER 5SEN/A         51  45  80  SW2     29.83R
#PENDLETON DNTN N/A         53  46  77  SW2     29.80R
#PDT AQUATIC CTRN/A         53  45  74  W10     29.89R
#PDT SUNRIDGE   N/A         54  46  74  W9      29.85R
#PENDLETON 6SE  N/A         52  46  80  W7      29.80R
#PENDLETON 7NW  N/A         52  45  77  W15     29.80R
#PILOT ROCK 1S  N/A         51  45  80  CALM    29.86R
#PILOT ROCK     N/A         51  46  83  CALM    29.88R
#TUTUILLA       N/A         51  47  86  W5      29.90R
#UMAPINE 2E     N/A         57  47  69  SW12    29.78R
#WESTON SCHOOL  N/A         48  43  83  W8      29.77R

$$

ORZ508-210010-
SOUTHERN FOOTHILLS OF THE BLUES

CITY            SKY/WX      TMP DP  RH  WIND    PRES   REMARKS
LEXINGTON       CLOUDY      50  43  77  W17     29.88R
#AJAX           N/A         50  36  58  NW9     30.00R
#CONDON 5W      N/A         45  40  82  CALM    29.81R
#HEPPNER EOC    N/A         48  45  89  W8      29.75R
#HEPPNER 4NE    N/A         45  44  96  W9      29.82R
#LEXINGTON 2SE  N/A         52  45  77  NW9     29.81R
#MIKKALO        N/A         50  41  71  W8      29.94R
#OLEX 4N        N/A         51  43  74  W16     29.82R
#RUGGS 5NE      N/A         47  46  96  W9      30.01R
#RUGGS 2SW      N/A         50  45  83  W6      29.84R

$$

ORZ502-503-210010-
BLUE MOUNTAINS

CITY            SKY/WX      TMP DP  RH  WIND    PRES   REMARKS
MEACHAM         LGT RAIN    43  41  93  VRB5    29.85R
#BATTLE MTN DOT N/A         44  42  93  N1      N/A
#GRANITE        N/A         42  39  89  CALM    29.92R
#GREENHORN 9SW  N/A         52  43  71  S1      29.83R
#LADD CYN SMT   N/A         42  40  93  SE15G24 N/A    WCI 34
#LADD CREEK ODOTN/A         44  40  86  SW5     N/A
#LONG CREEK HS  N/A         50  47  89  W12     29.84R
#N POWDER DOT   N/A         44  41  89  SE20    N/A    WCI 36
#PIKES PEAK     N/A         42  41  96  CALM    27.99S
#TOLLGATE       N/A         36  35  96  SW6     29.70R
#TROY SCHOOL    N/A         46  44  93  CALM    29.67R
#UKIAH          N/A         49  47  93  CALM    29.72R
#WESTON 4E      N/A         42  41  96  SW7     29.81R
$$

ORZ505-210010-
JOHN DAY BASIN

CITY            SKY/WX      TMP DP  RH  WIND    PRES   REMARKS
JOHN DAY        CLOUDY      56  43  62  W21G28  29.86R
#ANTELOPE 9ESE  N/A         58  45  62  W7      N/A
#DAYVILLE SCHOOLN/A         60  43  53  S3      29.80R
#MITCHELL 8NW   N/A         53  43  69  NW3     29.86R
#MONUMENT HS    N/A         54  49  83  CALM    29.80R
#MT. VERNON 5SE N/A         52  43  71  S5      29.81R
#WINLOCK        N/A         53  48  83  S9      29.82R
$$

ORZ506-210010-
OCHOCO AND JOHN DAY HIGHLANDS

CITY            SKY/WX      TMP DP  RH  WIND    PRES   REMARKS
#HORSE RIDGE DO N/A         53  43  69  SW13    N/A
#IZEE 6NW       N/A         53  44  71  S2      N/A
#PAULINA ODOT   N/A         54  42  64  SW16G24 N/A
#PINE MTN OBS   N/A         41  40  96  S8      N/A
#SENECA         N/A         48  N/A N/A N7      N/A
#SENECA 9NW     N/A         47  42  83  SW1     29.88R
$$

ORZ049-210010-
GRANDE RONDE VALLEY

CITY            SKY/WX      TMP DP  RH  WIND    PRES   REMARKS
LA GRANDE       RAIN        46  41  83  SW12    29.84R WCI 40
#COVE SCHOOL    N/A         51  42  71  E5      29.84R
#COVE 6NW       N/A         47  42  83  W1      29.85R
#ELGIN 3N       N/A         45  42  89  W6      29.84R
#ELGIN 1E       N/A         45  40  82  CALM    N/A
#IMBLER SCHOOL  N/A         44  41  89  S1      29.83R
#ISLAND CITY 4N N/A         53  50  89  CALM    29.91R
#LADD CYN DOT   N/A         46  42  86  S16G29  N/A    WCI 39
#UNION 1S       N/A         47  42  83  SE12    29.83R WCI 42
$$

ORZ050-210010-
WALLOWA COUNTY

CITY            SKY/WX      TMP DP  RH  WIND    PRES   REMARKS
JOSEPH AIRPORT  LGT RAIN    48  41  77  N10     29.79R
#ENTERPRISE HS  N/A         48  43  83  N5      29.68R
#IMNAHA SCHOOL  N/A         51  42  71  N15G26  29.80R
#IMNAHA 10S     N/A         50  37  61  SW8     29.81R
#JOSEPH         N/A         48  39  71  NE5     30.23R
#JOSEPH 3N      N/A         48  39  71  CALM    29.78R
#JOSEPH 3W      N/A         43  43  100 CALM    30.25R
#LOSTINE        N/A         47  43  86  CALM    29.64R
#LOSTINE 3SE    N/A         46  42  86  CALM    29.83R
#MT HOWARD 8000 N/A         33  31  92  SW18G40 29.78R WCI 22
#PROMISE 1S     N/A         43  40  89  SW12    29.88R WCI 37
#WALLOWA SCHOOL N/A         50  44  80  N1      29.77R



$$



USA.gov is the U.S. government's official web portal to all federal, state and local government web resources and services.